"2009-11-08 00:00:00",1397086,2.93,4.308,2.984,0.225,15.79,105.8843,14.34,15.37,28.39,0,110.4,13.33,15.14,326.3
"2009-11-08 00:00:30",1397087,2.735,5.871,2.197,0.188,15.81,105.8843,14.34,15.38,28.4,0,110.4,13.33,15.14,327.9
"2009-11-08 00:01:00",1397088,2.441,10.54,2.687,0.199,15.86,105.8843,14.34,15.37,28.41,0,110.4,13.33,15.14,332.5
"2009-11-08 00:01:30",1397089,2.748,15.55,2.435,0.277,15.95,105.8843,14.34,15.36,28.42,0,110.4,13.33,15.14,337.5
"2009-11-08 00:02:00",1397090,3.006,18.27,1.26,0.16,16.1,105.8843,14.34,15.36,28.48,0,110.4,13.33,15.14,340.3
"2009-11-08 00:02:30",1397091,3.108,18.35,1.271,0.203,16.07,105.8843,14.34,15.35,28.52,0,110.4,13.33,15.14,340.4
"2009-11-08 00:03:00",1397092,3.052,18.44,1.139,0.144,16.09,105.8843,14.34,15.35,28.53,0,110.4,13.33,15.14,340.4
"2009-11-08 00:03:30",1397093,3.134,19.08,1.261,0.158,16.13,105.8835,14.33,15.35,28.54,0,110.4,13.32,15.14,341.1
"2009-11-08 00:04:00",1397094,3.133,19.58,1.268,0.161,16.17,105.8824,14.33,15.34,28.56,0,110.4,13.32,15.13,341.6
"2009-11-08 00:04:30",1397095,3.011,18.61,1.079,0.206,16.14,105.8807,14.33,15.33,28.59,0,110.4,13.32,15.13,340.6
"2009-11-08 00:05:00",1397096,2.96,17.87,1.568,0.225,16.11,105.8764,14.32,15.34,28.54,0,110.4,13.33,15.12,339.9
"2009-11-08 00:05:30",1397097,2.727,16.32,1.466,0.223,16.02,105.8733,14.31,15.34,28.51,0,110.4,13.33,15.11,338.3
"2009-11-08 00:06:00",1397098,2.659,15.52,1.948,0.268,15.92,105.8658,14.29,15.34,28.48,0,110.4,13.33,15.09,337.5
"2009-11-08 00:06:30",1397099,2.269,11.87,2.292,0.187,15.89,105.8574,14.27,15.33,28.56,0,110.4,13.33,15.07,333.9
"2009-11-08 00:07:00",1397100,2.076,7.665,2.714,0.147,15.81,105.8543,14.26,15.34,28.54,0,110.4,13.33,15.06,329.7
"2009-11-08 00:07:30",1397101,2.209,5.418,2.773,0.188,15.75,105.8511,14.25,15.33,28.46,0,110.4,13.33,15.05,327.4
"2009-11-08 00:08:00",1397102,2.775,1.128,2.057,0.256,15.74,105.8517,14.25,15.32,28.42,0,110.4,13.33,15.05,323.1
"2009-11-08 00:08:30",1397103,3.233,358.9,1.865,0.253,15.73,105.852,14.25,15.32,28.3,0,110.4,13.33,15.06,320.9
"2009-11-08 00:09:00",1397104,3.386,359.4,1.58,0.201,15.75,105.855,14.26,15.32,28.24,0,110.4,13.33,15.06,321.4
"2009-11-08 00:09:30",1397105,3.534,358,1.674,0.229,15.73,105.855,14.26,15.32,28.21,0,110.4,13.33,15.06,320.0
"2009-11-08 00:10:00",1397106,3.581,357.9,2.028,0.239,15.74,105.8556,14.26,15.32,28.18,0,110.4,13.33,15.06,319.9
"2009-11-08 00:10:30",1397107,3.67,357.5,1.685,0.241,15.75,105.8607,14.28,15.32,28.13,0,110.4,13.33,15.08,319.5
"2009-11-08 00:11:00",1397108,3.598,358.6,1.795,0.209,15.77,105.8648,14.29,15.3,28.15,0,110.4,13.33,15.09,320.6
"2009-11-08 00:11:30",1397109,3.753,357.9,1.568,0.228,15.79,105.8669,14.29,15.31,28.13,0,110.4,13.34,15.09,319.9
"2009-11-08 00:12:00",1397110,3.504,359,2.365,0.32,15.82,105.8696,14.3,15.32,28.16,0,110.4,13.34,15.10,321.0
"2009-11-08 00:12:30",1397111,3.182,1.206,1.835,0.163,15.9,105.8699,14.3,15.31,28.28,0,110.4,13.34,15.10,323.2
"2009-11-08 00:13:00",1397112,3.212,0.405,2.046,0.19,15.9,105.8732,14.31,15.31,28.32,0,110.4,13.34,15.11,322.4
"2009-11-08 00:13:30",1397113,3.083,0.778,1.306,0.191,15.87,105.8741,14.31,15.31,28.29,0,110.4,13.34,15.11,322.8
"2009-11-08 00:14:00",1397114,2.884,1.895,1.85,0.19,15.86,105.8756,14.31,15.3,28.23,0,110.4,13.34,15.12,323.9
"2009-11-08 00:14:30",1397115,2.81,2.18,2.428,0.168,15.86,105.8762,14.32,15.3,28.18,0,110.4,13.34,15.12,324.2
"2009-11-08 00:15:00",1397116,3.105,1.269,1.654,0.265,15.83,105.878,14.32,15.32,28.16,0,110.4,13.34,15.12,323.3
"2009-11-08 00:15:30",1397117,3.245,1.241,1.945,0.229,15.8,105.8783,14.32,15.31,28.14,0,110.4,13.34,15.12,323.2
"2009-11-08 00:16:00",1397118,3.208,1.42,1.781,0.227,15.8,105.8808,14.33,15.32,28.12,0,110.4,13.34,15.13,323.4
"2009-11-08 00:16:30",1397119,3.384,0.676,1.128,0.208,15.78,105.8857,14.34,15.32,28.11,0,110.4,13.34,15.14,322.7
"2009-11-08 00:17:00",1397120,3.439,1.238,2.173,0.248,15.78,105.8897,14.35,15.34,28.11,0,110.4,13.34,15.15,323.2
"2009-11-08 00:17:30",1397121,3.43,2.803,2.152,0.257,15.77,105.8946,14.36,15.34,28.12,0,110.4,13.34,15.17,324.8
"2009-11-08 00:18:00",1397122,3.289,5.374,1.695,0.223,15.83,105.9003,14.38,15.32,28.14,0,110.4,13.34,15.18,327.4
"2009-11-08 00:18:30",1397123,3.158,7.191,2.316,0.229,15.85,105.9043,14.39,15.33,28.13,0,110.4,13.34,15.19,329.2
"2009-11-08 00:19:00",1397124,3.153,9.92,1.996,0.2,15.88,105.906,14.39,15.33,28.09,0,110.4,13.34,15.19,331.9
"2009-11-08 00:19:30",1397125,3.277,14.52,2.523,0.296,15.94,105.908,14.4,15.35,28.08,0,110.4,13.33,15.20,336.5
"2009-11-08 00:20:00",1397126,3.552,17.65,1.217,0.229,16.08,105.9066,14.39,15.34,28.1,0,110.4,13.33,15.20,339.6
"2009-11-08 00:20:30",1397127,3.465,16.84,1.59,0.218,16.02,105.9078,14.4,15.35,28.09,0,110.4,13.33,15.20,338.8
"2009-11-08 00:21:00",1397128,3.22,15.82,1.742,0.224,15.97,105.908,14.4,15.34,28.03,0,110.4,13.33,15.20,337.8
"2009-11-08 00:21:30",1397129,3.399,16.02,1.599,0.229,15.95,105.9044,14.39,15.34,27.97,0,110.4,13.33,15.19,338.0
"2009-11-08 00:22:00",1397130,2.854,13.81,2.268,0.316,15.87,105.9041,14.39,15.34,27.96,0,110.4,13.33,15.19,335.8
"2009-11-08 00:22:30",1397131,2.44,10.92,2.253,0.23,15.87,105.8973,14.37,15.36,27.94,0,110.4,13.33,15.17,332.9
"2009-11-08 00:23:00",1397132,2.37,9.91,3.068,0.229,15.82,105.897,14.37,15.34,27.92,0,110.4,13.33,15.17,331.9
"2009-11-08 00:23:30",1397133,2.404,8.52,2.262,0.149,15.82,105.892,14.36,15.35,27.89,0,110.4,13.34,15.16,330.5
"2009-11-08 00:24:00",1397134,2.53,8.93,2.573,0.184,15.8,105.8886,14.35,15.36,27.91,0,110.4,13.34,15.15,330.9
"2009-11-08 00:24:30",1397135,2.77,8.38,2.719,0.169,15.79,105.8863,14.34,15.34,27.99,0,110.4,13.34,15.14,330.4
"2009-11-08 00:25:00",1397136,2.83,8.63,2.307,0.197,15.79,105.8866,14.34,15.36,28,0,110.4,13.35,15.14,330.6
"2009-11-08 00:25:30",1397137,2.923,7.725,1.569,0.227,15.8,105.8863,14.34,15.35,27.97,0,110.4,13.35,15.14,329.7
"2009-11-08 00:26:00",1397138,3.096,6.918,1.989,0.251,15.83,105.8863,14.34,15.34,27.94,0,110.4,13.35,15.14,328.9
"2009-11-08 00:26:30",1397139,3.171,8.12,1.921,0.122,15.86,105.8863,14.34,15.34,27.93,0,110.4,13.35,15.14,330.1
"2009-11-08 00:27:00",1397140,3.046,8.13,1.682,0.183,15.84,105.8863,14.34,15.35,27.94,0,110.4,13.35,15.14,330.1
"2009-11-08 00:27:30",1397141,3.065,9.43,2.118,0.156,15.87,105.8863,14.34,15.35,27.93,0,110.4,13.35,15.14,331.4
"2009-11-08 00:28:00",1397142,3.201,9.55,1.895,0.186,15.88,105.8863,14.34,15.34,27.93,0,110.4,13.35,15.14,331.5
"2009-11-08 00:28:30",1397143,3.086,10.03,1.888,0.157,15.88,105.8863,14.34,15.34,27.95,0,110.4,13.35,15.14,332.0
"2009-11-08 00:29:00",1397144,3.094,13.3,1.937,0.19,15.94,105.8863,14.34,15.34,27.95,0,110.4,13.35,15.14,335.3
"2009-11-08 00:29:30",1397145,3,14.47,1.624,0.178,15.93,105.8863,14.34,15.34,27.96,0,110.4,13.35,15.14,336.5
"2009-11-08 00:30:00",1397146,3.073,15.36,1.611,0.197,15.89,105.8863,14.34,15.33,28.04,0,110.4,13.35,15.14,337.4
"2009-11-08 00:30:30",1397147,3.5,17.18,1.443,0.24,15.86,105.8863,14.34,15.33,28.18,0,110.4,13.35,15.14,339.2
"2009-11-08 00:31:00",1397148,3.742,17.5,1.129,0.231,15.85,105.8863,14.34,15.33,28.33,0,110.4,13.35,15.14,339.5
"2009-11-08 00:31:30",1397149,3.94,18.18,0.87,0.181,15.86,105.8863,14.34,15.33,28.47,0,110.4,13.35,15.14,340.2
"2009-11-08 00:32:00",1397150,3.99,17.88,1.17,0.17,15.84,105.8863,14.34,15.32,28.56,0,110.4,13.35,15.14,339.9
"2009-11-08 00:32:30",1397151,3.98,17.6,1.389,0.239,15.84,105.886,14.34,15.32,28.6,0,110.4,13.35,15.14,339.6
"2009-11-08 00:33:00",1397152,4.239,18.14,1.032,0.208,15.82,105.8849,14.34,15.33,28.64,0,110.4,13.35,15.14,340.1
"2009-11-08 00:33:30",1397153,4.356,18.64,0.888,0.145,15.81,105.8815,14.33,15.32,28.77,0,110.4,13.35,15.13,340.6
"2009-11-08 00:34:00",1397154,4.141,18.47,0.686,0.195,15.79,105.8773,14.32,15.31,28.81,0,110.4,13.35,15.12,340.5
"2009-11-08 00:34:30",1397155,4.085,17.83,0.88,0.186,15.81,105.8719,14.3,15.31,28.82,0,110.4,13.35,15.11,339.8
"2009-11-08 00:35:00",1397156,4.137,18.36,0.819,0.111,15.85,105.8573,14.27,15.32,28.83,0,110.4,13.35,15.07,340.4
"2009-11-08 00:35:30",1397157,3.997,18,1.148,0.164,15.84,105.8531,14.26,15.3,28.8,0,110.4,13.35,15.06,340.0
"2009-11-08 00:36:00",1397158,3.931,18.01,0.862,0.143,15.86,105.8525,14.26,15.3,28.77,0,110.4,13.35,15.06,340.0
"2009-11-08 00:36:30",1397159,3.784,17.99,0.92,0.15,15.91,105.8525,14.26,15.31,28.73,0,110.4,13.35,15.06,340.0
"2009-11-08 00:37:00",1397160,3.807,18.35,0.813,0.142,15.94,105.8525,14.26,15.3,28.71,0,110.4,13.35,15.06,340.4
"2009-11-08 00:37:30",1397161,3.839,18.41,1.028,0.18,15.94,105.8525,14.26,15.29,28.65,0,110.4,13.35,15.06,340.4
"2009-11-08 00:38:00",1397162,3.599,17.55,1.326,0.196,15.91,105.8525,14.26,15.28,28.62,0,110.4,13.35,15.06,339.5
"2009-11-08 00:38:30",1397163,3.53,17.4,1.393,0.191,15.91,105.8525,14.26,15.29,28.63,0,110.4,13.35,15.06,339.4
"2009-11-08 00:39:00",1397164,3.409,17.26,1.471,0.164,15.95,105.8525,14.26,15.28,28.57,0,110.4,13.35,15.06,339.3
"2009-11-08 00:39:30",1397165,3.414,16.15,1.395,0.156,15.95,105.8525,14.26,15.27,28.53,0,110.4,13.35,15.06,338.1
"2009-11-08 00:40:00",1397166,3.339,15.38,1.767,0.18,15.94,105.8525,14.26,15.26,28.54,0,110.4,13.35,15.06,337.4
"2009-11-08 00:40:30",1397167,3.391,17.06,0.969,0.146,15.99,105.8525,14.26,15.28,28.52,0,110.4,13.35,15.06,339.1
"2009-11-08 00:41:00",1397168,3.368,17.1,1.511,0.151,15.97,105.8522,14.25,15.26,28.51,0,110.4,13.35,15.06,339.1
"2009-11-08 00:41:30",1397169,3.474,18.05,1.117,0.113,15.95,105.8508,14.25,15.25,28.5,0,110.4,13.35,15.05,340.0
"2009-11-08 00:42:00",1397170,3.554,18.28,1.177,0.153,15.99,105.8497,14.25,15.25,28.49,0,110.4,13.35,15.05,340.3
"2009-11-08 00:42:30",1397171,3.626,18.59,1.338,0.135,15.97,105.8429,14.23,15.25,28.49,0,110.4,13.35,15.03,340.6
"2009-11-08 00:43:00",1397172,3.544,17.81,1.364,0.163,15.92,105.837,14.22,15.24,28.47,0,110.4,13.35,15.02,339.8
"2009-11-08 00:43:30",1397173,3.283,16.82,1.712,0.22,15.87,105.8319,14.2,15.24,28.47,0,110.4,13.35,15.00,338.8
"2009-11-08 00:44:00",1397174,3.328,16.76,1.369,0.16,15.89,105.8294,14.2,15.25,28.46,0,110.4,13.36,15.00,338.8
"2009-11-08 00:44:30",1397175,3.115,14.87,1.666,0.219,15.88,105.8263,14.19,15.24,28.45,0,110.4,13.36,14.99,336.9
"2009-11-08 00:45:00",1397176,2.597,10.14,2.428,0.197,15.84,105.8235,14.18,15.24,28.46,0,110.4,13.36,14.98,332.1
"2009-11-08 00:45:30",1397177,2.675,6.02,2.269,0.178,15.83,105.8206,14.17,15.24,28.48,0,110.4,13.36,14.97,328.0
"2009-11-08 00:46:00",1397178,2.621,5.426,1.493,0.162,15.82,105.8195,14.17,15.22,28.46,0,110.4,13.36,14.97,327.4
"2009-11-08 00:46:30",1397179,2.621,5.441,2.617,0.173,15.84,105.819,14.17,15.23,28.45,0,110.4,13.36,14.97,327.4
"2009-11-08 00:47:00",1397180,2.686,5.087,2.024,0.217,15.85,105.819,14.17,15.21,28.42,0,110.4,13.36,14.97,327.1
"2009-11-08 00:47:30",1397181,2.656,6.172,2.596,0.178,15.85,105.819,14.17,15.22,28.41,0,110.4,13.36,14.97,328.2
"2009-11-08 00:48:00",1397182,2.749,5.751,1.721,0.262,15.86,105.819,14.17,15.21,28.38,0,110.4,13.36,14.97,327.8
"2009-11-08 00:48:30",1397183,2.915,6.563,1.856,0.183,15.94,105.8192,14.17,15.22,28.37,0,110.4,13.36,14.97,328.6
"2009-11-08 00:49:00",1397184,2.802,8.22,2.423,0.186,15.97,105.8187,14.17,15.22,28.39,0,110.4,13.36,14.97,330.2
"2009-11-08 00:49:30",1397185,3.061,8.74,2.658,0.291,16.02,105.819,14.17,15.22,28.37,0,110.4,13.36,14.97,330.7
"2009-11-08 00:50:00",1397186,3.56,14.54,2.52,0.141,16.1,105.8192,14.17,15.22,28.34,0,110.4,13.36,14.97,336.5
"2009-11-08 00:50:30",1397187,3.565,18.9,1.436,0.125,16.17,105.8192,14.17,15.21,28.32,0,110.4,13.36,14.97,340.9
"2009-11-08 00:51:00",1397188,3.555,20.2,1.15,0.127,16.23,105.8195,14.17,15.22,28.3,0,110.4,13.36,14.97,342.2
"2009-11-08 00:51:30",1397189,3.302,23.53,1.171,0.161,16.22,105.819,14.17,15.21,28.26,0,110.4,13.36,14.97,345.5
"2009-11-08 00:52:00",1397190,3.064,25.75,0.998,0.124,16.21,105.8206,14.17,15.24,28.22,0,110.4,13.35,14.97,347.8
"2009-11-08 00:52:30",1397191,3.316,24.9,0.924,0.166,16.21,105.8218,14.18,15.22,28.22,0,110.4,13.35,14.98,346.9
"2009-11-08 00:53:00",1397192,3.802,23.52,1.093,0.196,16.14,105.8266,14.19,15.22,28.25,0,110.4,13.35,14.99,345.5
"2009-11-08 00:53:30",1397193,4.016,21.77,1.103,0.138,16.05,105.8336,14.21,15.23,28.33,0,110.4,13.35,15.01,343.8
"2009-11-08 00:54:00",1397194,4.103,21.12,1.214,0.114,16.04,105.8367,14.21,15.23,28.34,0,110.4,13.35,15.02,343.1
"2009-11-08 00:54:30",1397195,4.074,21.16,1.106,0.113,16.01,105.8438,14.23,15.23,28.34,0,110.4,13.35,15.03,343.2
"2009-11-08 00:55:00",1397196,4.026,20.75,1.395,0.125,16.01,105.8485,14.24,15.22,28.33,0,110.4,13.35,15.05,342.8
"2009-11-08 00:55:30",1397197,3.929,20.32,1.05,0.144,15.99,105.852,14.25,15.23,28.34,0,110.4,13.35,15.06,342.3
"2009-11-08 00:56:00",1397198,3.732,22.02,1.138,0.114,16.05,105.8525,14.26,15.23,28.3,0,110.4,13.35,15.06,344.0
"2009-11-08 00:56:30",1397199,3.605,22.41,1.166,0.125,16.15,105.8525,14.26,15.24,28.26,0,110.4,13.35,15.06,344.4
"2009-11-08 00:57:00",1397200,3.39,24.54,1.185,0.133,16.13,105.8528,14.26,15.25,28.27,0,110.4,13.35,15.06,346.5
"2009-11-08 00:57:30",1397201,3.226,25.63,1.046,0.114,16.13,105.8528,14.26,15.25,28.26,0,110.4,13.36,15.06,347.6
"2009-11-08 00:58:00",1397202,3.319,26.48,1.135,0.096,16.18,105.8528,14.26,15.26,28.25,0,110.4,13.36,15.06,348.5
"2009-11-08 00:58:30",1397203,3.395,25.66,0.874,0.134,16.17,105.8531,14.26,15.26,28.22,0,110.4,13.36,15.06,347.7
"2009-11-08 00:59:00",1397204,3.939,23.7,1.589,0.308,16.08,105.8525,14.26,15.26,28.22,0,110.4,13.36,15.06,345.7
"2009-11-08 00:59:30",1397205,4.307,21.02,1.033,0.098,15.96,105.8528,14.26,15.27,28.25,0,110.4,13.36,15.06,343.0
"2009-11-08 01:00:00",1397206,4.26,20.63,1.229,0.14,15.9,105.8528,14.26,15.28,28.27,0,110.4,13.36,15.06,342.6
"2009-11-08 01:00:30",1397207,4.218,19.86,0.961,0.128,15.88,105.8528,14.26,15.29,28.26,0,110.4,13.36,15.06,341.9
"2009-11-08 01:01:00",1397208,4.249,19.73,0.969,0.167,15.92,105.8534,14.26,15.28,28.26,0,110.4,13.36,15.06,341.7
"2009-11-08 01:01:30",1397209,4.307,19.59,1.057,0.137,15.88,105.8534,14.26,15.28,28.24,0,110.4,13.36,15.06,341.6
"2009-11-08 01:02:00",1397210,4.511,19.72,1.181,0.149,15.84,105.8543,14.26,15.29,28.23,0,110.4,13.36,15.06,341.7
"2009-11-08 01:02:30",1397211,4.54,19.4,1.013,0.141,15.87,105.8534,14.26,15.3,28.24,0,110.4,13.36,15.06,341.4
"2009-11-08 01:03:00",1397212,4.534,20.24,0.886,0.134,15.84,105.8534,14.26,15.29,28.22,0,110.4,13.36,15.06,342.2
"2009-11-08 01:03:30",1397213,4.535,19.98,0.891,0.143,15.81,105.8546,14.26,15.3,28.22,0,110.4,13.36,15.06,342.0
"2009-11-08 01:04:00",1397214,4.425,21.47,1.428,0.146,15.79,105.8558,14.26,15.31,28.21,0,110.4,13.36,15.07,343.5
"2009-11-08 01:04:30",1397215,4.201,23.73,1.419,0.175,15.82,105.8537,14.26,15.3,28.19,0,110.4,13.36,15.06,345.7
"2009-11-08 01:05:00",1397216,3.901,26.22,1.211,0.104,15.88,105.8558,14.26,15.32,28.19,0,110.4,13.36,15.07,348.2
"2009-11-08 01:05:30",1397217,3.899,26.95,1.163,0.13,15.92,105.8561,14.26,15.32,28.17,0,110.4,13.36,15.07,349.0
"2009-11-08 01:06:00",1397218,3.849,27.68,1.113,0.149,15.91,105.854,14.26,15.32,28.17,0,110.4,13.36,15.06,349.7
"2009-11-08 01:06:30",1397219,3.821,27.46,1.071,0.111,15.87,105.854,14.26,15.32,28.18,0,110.4,13.36,15.06,349.5
"2009-11-08 01:07:00",1397220,3.766,27,1.273,0.155,15.85,105.8555,14.26,15.31,28.21,0,110.4,13.36,15.06,349.0
"2009-11-08 01:07:30",1397221,3.915,26.59,1.202,0.154,15.85,105.8549,14.26,15.32,28.2,0,110.4,13.36,15.06,348.6
"2009-11-08 01:08:00",1397222,3.898,26.8,1.375,0.14,15.83,105.8561,14.26,15.31,28.22,0,110.4,13.36,15.07,348.8
"2009-11-08 01:08:30",1397223,3.825,26.95,1.211,0.119,15.85,105.8561,14.26,15.32,28.23,0,110.4,13.36,15.07,349.0
"2009-11-08 01:09:00",1397224,3.89,25.52,1.207,0.174,15.83,105.8558,14.26,15.33,28.26,0,110.4,13.36,15.07,347.5
"2009-11-08 01:09:30",1397225,4.026,24.53,0.924,0.146,15.84,105.8582,14.27,15.31,28.27,0,110.4,13.36,15.07,346.5
"2009-11-08 01:10:00",1397226,4.253,22.87,1.293,0.227,15.86,105.857,14.27,15.31,28.31,0,110.4,13.36,15.07,344.9
"2009-11-08 01:10:30",1397227,4.512,21.08,1.11,0.141,15.86,105.8588,14.27,15.31,28.34,0,110.4,13.36,15.07,343.1
"2009-11-08 01:11:00",1397228,4.212,18.79,0.996,0.319,15.83,105.8576,14.27,15.31,28.27,0,110.4,13.36,15.07,340.8
"2009-11-08 01:11:30",1397229,3.877,17.54,1.373,0.241,15.79,105.8579,14.27,15.31,28.2,0,110.4,13.36,15.07,339.5
"2009-11-08 01:12:00",1397230,3.6,16.96,1.356,0.236,15.81,105.8597,14.27,15.32,28.19,0,110.4,13.36,15.08,339.0
"2009-11-08 01:12:30",1397231,3.526,16.26,1.552,0.325,15.79,105.8582,14.27,15.31,28.19,0,110.4,13.36,15.07,338.3
"2009-11-08 01:13:00",1397232,3.466,15.63,2.057,0.333,15.79,105.8603,14.27,15.3,28.18,0,110.4,13.36,15.08,337.6
"2009-11-08 01:13:30",1397233,4.565,21.21,6.788,1.318,17.8,105.8591,14.27,15.43,28.31,0,110.4,13.32,15.07,343.2
"2009-11-08 01:14:00",1397234,4.579,21.48,7.687,1.504,17.33,105.86,14.27,15.44,28.34,0,110.4,13.32,15.08,343.5
"2009-11-08 01:14:30",1397235,4.203,18.54,0.983,0.152,15.23,105.8621,14.28,15.3,28.28,0,110.4,13.36,15.08,340.5
"2009-11-08 01:15:00",1397236,4.145,17.5,1.613,0.216,15.11,105.8621,14.28,15.29,28.37,0,110.4,13.36,15.08,339.5
"2009-11-08 01:15:30",1397237,4.184,18.33,0.871,0.178,15.13,105.8591,14.27,15.29,28.42,0,110.4,13.36,15.07,340.3
"2009-11-08 01:16:00",1397238,4.217,18.52,0.871,0.2,15.21,105.8622,14.28,15.28,28.43,0,110.4,13.36,15.08,340.5
"2009-11-08 01:16:30",1397239,4.094,18.62,0.877,0.182,15.32,105.8534,14.26,15.29,28.45,0,110.4,13.36,15.06,340.6
"2009-11-08 01:17:00",1397240,4.155,18.61,0.897,0.153,15.41,105.8404,14.22,15.27,28.51,0,110.4,13.36,15.03,340.6
"2009-11-08 01:17:30",1397241,3.785,18.26,1.038,0.224,15.53,105.8336,14.21,15.28,28.56,0,110.4,13.36,15.01,340.3
"2009-11-08 01:18:00",1397242,3.685,18.25,0.948,0.185,15.64,105.8282,14.19,15.27,28.61,0,110.4,13.36,14.99,340.2
"2009-11-08 01:18:30",1397243,3.358,17.4,1.311,0.264,15.74,105.8303,14.2,15.26,28.63,0,110.4,13.36,15.00,339.4
"2009-11-08 01:19:00",1397244,3.178,17.09,1.995,0.323,15.74,105.8297,14.2,15.24,28.6,0,110.4,13.36,15.00,339.1
"2009-11-08 01:19:30",1397245,3.531,18.38,1.311,0.268,15.73,105.8309,14.2,15.24,28.64,0,110.4,13.37,15.00,340.4
"2009-11-08 01:20:00",1397246,3.81,19.28,0.84,0.12,15.74,105.8309,14.2,15.23,28.67,0,110.4,13.37,15.00,341.3
"2009-11-08 01:20:30",1397247,3.483,18.23,2.165,0.441,15.68,105.8312,14.2,15.21,28.67,0,110.4,13.37,15.00,340.2
"2009-11-08 01:21:00",1397248,3.543,18.57,1.223,0.308,15.66,105.8306,14.2,15.22,28.57,0,110.4,13.37,15.00,340.6
"2009-11-08 01:21:30",1397249,3.462,18.03,1.182,0.256,15.67,105.824,14.18,15.2,28.59,0,110.4,13.37,14.98,340.0
"2009-11-08 01:22:00",1397250,3.24,17.14,2.169,0.462,15.69,105.8067,14.14,15.21,28.56,0,110.4,13.37,14.94,339.1
"2009-11-08 01:22:30",1397251,3.369,18.1,1.694,0.33,15.68,105.7988,14.12,15.19,28.49,0,110.4,13.37,14.92,340.1
"2009-11-08 01:23:00",1397252,4.651,24.14,8.08,1.628,18.2,105.8007,14.12,15.35,28.73,0,110.4,13.33,14.92,346.1
"2009-11-08 01:23:30",1397253,5.056,25.81,7.005,1.353,18.25,105.8001,14.12,15.38,28.88,0,110.4,13.33,14.92,347.8
"2009-11-08 01:24:00",1397254,3.771,20.07,5.901,1.094,16.2,105.8018,14.13,15.34,28.88,0,110.4,13.33,14.93,342.1
"2009-11-08 01:24:30",1397255,4.817,24.63,7.223,1.364,16.8,105.8027,14.13,15.23,28.79,0,110.4,13.33,14.93,346.6
"2009-11-08 01:25:00",1397256,4.947,24.7,7.16,1.441,15.71,105.8019,14.13,15.29,28.92,0,110.4,13.32,14.93,346.7
"2009-11-08 01:25:30",1397257,4.113,20.12,1.292,0.187,13.15,105.7897,14.09,15.14,28.78,0,110.4,13.36,14.90,342.1
"2009-11-08 01:26:00",1397258,4.108,19.56,0.823,0.123,13.26,105.7734,14.05,15.13,28.79,0,110.4,13.36,14.85,341.6
"2009-11-08 01:26:30",1397259,4.263,20.87,1.466,0.149,13.56,105.7713,14.05,15.12,28.7,0,110.4,13.36,14.85,342.9
"2009-11-08 01:27:00",1397260,4.136,20.81,1.163,0.142,13.9,105.7725,14.05,15.11,28.64,0,110.4,13.36,14.85,342.8
"2009-11-08 01:27:30",1397261,4.088,21.07,0.948,0.14,14.24,105.7731,14.05,15.11,28.57,0,110.4,13.36,14.85,343.1
"2009-11-08 01:28:00",1397262,3.999,19.65,1.116,0.113,14.52,105.7728,14.05,15.08,28.5,0,110.4,13.36,14.85,341.6
"2009-11-08 01:28:30",1397263,3.926,19.28,0.957,0.162,14.76,105.7706,14.05,15.07,28.41,0,110.4,13.36,14.85,341.3
"2009-11-08 01:29:00",1397264,4.12,18.41,1.284,0.22,14.98,105.7555,14.01,15.05,28.42,0,110.4,13.36,14.81,340.4
"2009-11-08 01:29:30",1397265,4.03,18.39,1.218,0.133,15.13,105.7492,13.99,15.05,28.38,0,110.4,13.36,14.79,340.4
"2009-11-08 01:30:00",1397266,4.019,18.34,1.027,0.099,15.27,105.7428,13.97,15.03,28.44,0,110.4,13.36,14.77,340.3
"2009-11-08 01:30:30",1397267,4.006,18.2,1.076,0.098,15.38,105.744,13.98,15.03,28.53,0,110.4,13.36,14.78,340.2
"2009-11-08 01:31:00",1397268,5.223,24.5,6.701,1.295,17.45,105.744,13.98,15.14,28.83,0,110.4,13.33,14.78,346.5
"2009-11-08 01:31:30",1397269,4.506,21.82,5.56,1.072,16.53,105.747,13.98,15.17,28.94,0,110.4,13.33,14.79,343.8
"2009-11-08 01:32:00",1397270,4.134,19.09,0.812,0.125,15,105.7488,13.99,15.01,28.84,0,110.4,13.37,14.79,341.1
"2009-11-08 01:32:30",1397271,4.886,23.31,6.937,1.26,16.91,105.7411,13.97,15.18,29.03,0,110.4,13.33,14.77,345.3
"2009-11-08 01:33:00",1397272,5.08,23.81,6.855,1.368,16.71,105.7273,13.93,15.08,28.96,0,110.4,13.33,14.74,345.8
"2009-11-08 01:33:30",1397273,5.802,28.39,6.429,1.339,18.38,105.7145,13.9,15.17,29.07,0,110.4,13.33,14.70,350.4
"2009-11-08 01:34:00",1397274,5.706,26.96,7.392,1.365,16.98,105.7143,13.9,15.1,29.03,0,110.4,13.33,14.70,349.0
"2009-11-08 01:34:30",1397275,4.01,19.19,0.859,0.142,13.49,105.7155,13.9,14.95,28.92,0,110.4,13.36,14.70,341.2
"2009-11-08 01:35:00",1397276,3.934,19.39,0.87,0.118,13.3,105.7152,13.9,14.93,28.92,0,110.4,13.36,14.70,341.4
"2009-11-08 01:35:30",1397277,3.918,19.22,0.86,0.167,13.5,105.7146,13.9,14.9,28.92,0,110.4,13.36,14.70,341.2
"2009-11-08 01:36:00",1397278,3.752,19.15,0.752,0.155,13.81,105.7162,13.91,14.92,28.94,0,110.4,13.36,14.71,341.1
"2009-11-08 01:36:30",1397279,3.673,18.61,0.945,0.146,14.11,105.7111,13.89,14.91,28.93,0,110.4,13.37,14.69,340.6
"2009-11-08 01:37:00",1397280,3.519,18.12,1.086,0.143,14.39,105.7095,13.89,14.9,28.91,0,110.4,13.37,14.69,340.1
"2009-11-08 01:37:30",1397281,3.678,18.36,1.207,0.14,14.66,105.7013,13.87,14.88,28.95,0,110.4,13.37,14.67,340.4
"2009-11-08 01:38:00",1397282,3.68,19.31,1.137,0.142,14.91,105.6858,13.83,14.88,29.02,0,110.4,13.37,14.63,341.3
"2009-11-08 01:38:30",1397283,4.878,29.8,7.831,1.359,17.19,105.6829,13.82,14.99,29.22,0,110.4,13.33,14.62,351.8
"2009-11-08 01:39:00",1397284,4.364,31.15,6.087,1.058,16.89,105.6838,13.82,15.01,29.37,0,110.4,13.34,14.62,353.1
"2009-11-08 01:39:30",1397285,3.31,26.89,1.857,0.171,14.89,105.6853,13.83,14.84,29.2,0,110.4,13.37,14.63,348.9
"2009-11-08 01:40:00",1397286,3.028,27.8,1.254,0.106,14.83,105.6853,13.83,14.85,29.18,0,110.4,13.37,14.63,349.8
"2009-11-08 01:40:30",1397287,3.197,25.76,1.438,0.176,14.79,105.6853,13.83,14.84,29.22,0,110.4,13.37,14.63,347.8
"2009-11-08 01:41:00",1397288,3.593,23.12,1.845,0.231,14.85,105.6847,13.83,14.82,29.21,0,110.4,13.37,14.63,345.1
"2009-11-08 01:41:30",1397289,3.753,19.66,1.272,0.198,14.95,105.685,13.83,14.82,29.2,0,110.4,13.37,14.63,341.7
"2009-11-08 01:42:00",1397290,2.753,15.84,2.659,0.35,15.01,105.6825,13.82,14.81,29.19,0,110.4,13.36,14.62,337.8
"2009-11-08 01:42:30",1397291,3.428,17.92,7.398,1.377,17.79,105.6777,13.81,15.03,29.29,0,110.4,13.33,14.61,339.9
"2009-11-08 01:43:00",1397292,3.984,19.95,6.861,1.147,18.5,105.6706,13.79,15,29.15,0,110.4,13.33,14.59,342.0
"2009-11-08 01:43:30",1397293,2.09,10.63,4.375,0.504,14.89,105.6579,13.76,14.94,29.07,0,110.4,13.33,14.56,332.6
"2009-11-08 01:44:00",1397294,3.304,15.83,7.382,1.28,15.37,105.6523,13.74,14.81,28.9,0,110.4,13.33,14.54,337.8
"2009-11-08 01:44:30",1397295,2.772,12.73,2.394,0.202,13.3,105.6514,13.74,14.78,28.81,0,110.4,13.36,14.54,334.7
"2009-11-08 01:45:00",1397296,3.101,13.98,1.603,0.199,13.17,105.6514,13.74,14.78,28.79,0,110.4,13.36,14.54,336.0
"2009-11-08 01:45:30",1397297,3.169,14.31,1.759,0.166,13.32,105.6514,13.74,14.77,28.77,0,110.4,13.36,14.54,336.3
"2009-11-08 01:46:00",1397298,2.932,11.98,2.023,0.157,13.7,105.6514,13.74,14.8,28.81,0,110.4,13.36,14.54,334.0
"2009-11-08 01:46:30",1397299,4.07,16.2,7.537,1.292,16.1,105.6514,13.74,14.86,28.94,0,110.4,13.33,14.54,338.2